TimeEST,TemperatureF,Dew PointF,Humidity,Sea Level PressureIn,VisibilityMPH,Wind Direction,Wind SpeedMPH,Gust SpeedMPH,PrecipitationIn,Events,Conditions,WindDirDegrees,DateUTC
12:15 AM,32.0,32.0,100,30.13,2.0,ENE,4.6,-,0.05,,Overcast,70,2013-01-16 05:15:00
12:35 AM,32.0,32.0,100,30.12,2.0,Calm,Calm,-,0.08,Rain,Rain,0,2013-01-16 05:35:00
12:55 AM,32.0,32.0,100,30.11,2.0,Calm,Calm,-,0.13,,Overcast,0,2013-01-16 05:55:00
1:15 AM,32.0,32.0,100,30.13,1.8,NE,3.5,-,0.03,Rain,Rain,40,2013-01-16 06:15:00
1:35 AM,32.0,32.0,100,30.13,2.0,NE,3.5,-,0.07,Rain,Light Rain,40,2013-01-16 06:35:00
1:55 AM,32.0,32.0,100,30.13,2.0,Calm,Calm,-,0.09,Rain,Rain,0,2013-01-16 06:55:00
2:15 AM,32.0,32.0,100,30.12,3.0,ESE,4.6,-,0.02,Rain,Light Rain,110,2013-01-16 07:15:00
2:35 AM,32.0,32.0,100,30.10,3.0,Calm,Calm,-,0.02,Rain,Rain,0,2013-01-16 07:35:00
2:55 AM,32.0,32.0,100,30.10,4.0,Calm,Calm,-,0.02,,Light Drizzle,0,2013-01-16 07:55:00
3:15 AM,32.0,32.0,100,30.08,5.0,Calm,Calm,-,N/A,,Light Drizzle,0,2013-01-16 08:15:00
3:35 AM,32.0,32.0,100,30.07,5.0,Calm,Calm,-,N/A,,Overcast,0,2013-01-16 08:35:00
3:55 AM,32.0,32.0,100,30.06,4.0,Calm,Calm,-,N/A,Rain,Light Rain,0,2013-01-16 08:55:00
4:15 AM,32.0,32.0,100,30.05,5.0,Calm,Calm,-,N/A,Rain,Light Rain,0,2013-01-16 09:15:00
4:35 AM,32.0,32.0,100,30.03,5.0,Calm,Calm,-,N/A,Rain,Light Rain,0,2013-01-16 09:35:00
4:55 AM,32.0,32.0,100,30.04,5.0,Calm,Calm,-,0.01,Rain,Light Rain,0,2013-01-16 09:55:00
5:15 AM,32.0,32.0,100,30.05,4.0,Calm,Calm,-,N/A,Rain,Light Rain,0,2013-01-16 10:15:00
5:35 AM,32.0,32.0,100,30.05,4.0,North,3.5,-,N/A,Rain,Light Rain,10,2013-01-16 10:35:00
5:55 AM,32.0,32.0,100,30.04,3.0,Calm,Calm,-,0.02,Rain,Rain,0,2013-01-16 10:55:00
6:15 AM,32.0,32.0,100,30.04,3.0,Calm,Calm,-,0.02,Rain,Light Rain,0,2013-01-16 11:15:00
6:35 AM,32.0,32.0,100,30.03,3.0,East,3.5,-,0.03,Rain,Rain,90,2013-01-16 11:35:00
6:55 AM,32.0,32.0,100,30.02,3.0,East,3.5,-,0.05,Rain,Light Rain,90,2013-01-16 11:55:00
7:15 AM,32.0,32.0,100,30.01,4.0,Calm,Calm,-,0.01,Rain,Light Rain,0,2013-01-16 12:15:00
7:35 AM,32.0,32.0,100,30.01,5.0,Calm,Calm,-,0.01,Rain,Rain,0,2013-01-16 12:35:00
7:55 AM,32.0,32.0,100,30.03,2.5,Calm,Calm,-,0.02,Rain,Rain,0,2013-01-16 12:55:00
8:15 AM,33.8,33.8,100,30.02,1.2,Calm,Calm,-,0.01,Rain,Rain,0,2013-01-16 13:15:00
8:35 AM,33.8,33.8,100,30.01,2.5,South,3.5,-,0.03,Rain,Light Rain,190,2013-01-16 13:35:00
8:55 AM,33.8,33.8,100,30.00,3.0,South,9.2,-,0.04,Rain,Light Rain,180,2013-01-16 13:55:00
9:15 AM,33.8,33.8,100,29.99,5.0,SSW,5.8,-,N/A,Rain,Light Rain,200,2013-01-16 14:15:00
9:35 AM,33.8,33.8,100,30.01,5.0,SW,4.6,-,0.01,Rain,Light Rain,230,2013-01-16 14:35:00
9:55 AM,33.8,33.8,100,29.99,5.0,South,4.6,-,0.01,Rain,Light Rain,190,2013-01-16 14:55:00
10:15 AM,33.8,33.8,100,29.98,7.0,South,4.6,-,N/A,,Light Drizzle,190,2013-01-16 15:15:00
10:35 AM,33.8,33.8,100,29.97,7.0,South,5.8,-,N/A,,Overcast,180,2013-01-16 15:35:00
10:55 AM,35.6,35.6,100,29.96,10.0,South,6.9,-,N/A,,Overcast,170,2013-01-16 15:55:00
11:15 AM,35.6,35.6,100,29.90,7.0,South,9.2,-,N/A,,Overcast,180,2013-01-16 16:15:00
11:35 AM,35.6,35.6,100,29.84,7.0,South,5.8,-,N/A,,Overcast,190,2013-01-16 16:35:00
11:55 AM,35.6,35.6,100,29.84,7.0,West,5.8,-,N/A,,Overcast,260,2013-01-16 16:55:00
12:15 PM,35.6,35.6,100,29.85,7.0,West,3.5,-,N/A,Rain,Light Rain,260,2013-01-16 17:15:00
12:35 PM,37.4,37.4,100,29.83,7.0,SW,3.5,-,N/A,,Light Drizzle,220,2013-01-16 17:35:00
12:55 PM,37.4,37.4,100,29.88,10.0,WNW,6.9,-,N/A,Rain,Light Rain,290,2013-01-16 17:55:00
1:15 PM,37.4,37.4,100,29.86,10.0,NW,10.4,-,N/A,Rain,Light Rain,310,2013-01-16 18:15:00
1:35 PM,37.4,37.4,100,29.85,10.0,Calm,Calm,-,N/A,Rain,Light Rain,0,2013-01-16 18:35:00
1:55 PM,37.4,37.4,100,29.90,10.0,North,6.9,-,N/A,,Overcast,350,2013-01-16 18:55:00
2:15 PM,35.6,35.6,100,29.90,7.0,NNE,4.6,-,N/A,,Light Drizzle,20,2013-01-16 19:15:00
2:35 PM,35.6,35.6,100,29.90,10.0,NNE,4.6,-,N/A,,Overcast,30,2013-01-16 19:35:00
2:55 PM,35.6,35.6,100,29.90,7.0,North,3.5,-,N/A,,Mostly Cloudy,360,2013-01-16 19:55:00
3:15 PM,35.6,35.6,100,29.91,7.0,Calm,Calm,-,N/A,,Scattered Clouds,0,2013-01-16 20:15:00
3:35 PM,35.6,35.6,100,29.91,7.0,NE,3.5,-,N/A,,Mostly Cloudy,50,2013-01-16 20:35:00
3:55 PM,35.6,35.6,100,29.93,7.0,SE,3.5,-,N/A,,Scattered Clouds,130,2013-01-16 20:55:00
4:15 PM,37.4,37.4,100,29.93,5.0,Calm,Calm,-,N/A,,Mostly Cloudy,0,2013-01-16 21:15:00
4:35 PM,37.4,37.4,100,29.93,5.0,Calm,Calm,-,N/A,,Overcast,0,2013-01-16 21:35:00
4:55 PM,37.4,37.4,100,29.95,7.0,Calm,Calm,-,N/A,,Overcast,0,2013-01-16 21:55:00
5:15 PM,37.4,37.4,100,29.95,7.0,Calm,Calm,-,N/A,,Overcast,0,2013-01-16 22:15:00
5:35 PM,37.4,37.4,100,29.96,7.0,Calm,Calm,-,N/A,,Overcast,0,2013-01-16 22:35:00
5:55 PM,37.4,37.4,100,29.96,5.0,Calm,Calm,-,N/A,,Overcast,0,2013-01-16 22:55:00
6:15 PM,37.4,37.4,100,29.95,5.0,Calm,Calm,-,N/A,,Mostly Cloudy,0,2013-01-16 23:15:00
6:35 PM,37.4,37.4,100,29.96,7.0,Calm,Calm,-,N/A,,Overcast,0,2013-01-16 23:35:00
6:55 PM,37.4,37.4,100,29.97,7.0,Calm,Calm,-,N/A,,Overcast,0,2013-01-16 23:55:00
7:15 PM,37.4,37.4,100,29.97,7.0,Calm,Calm,-,N/A,,Overcast,0,2013-01-17 00:15:00
7:35 PM,37.4,37.4,100,29.97,7.0,South,3.5,-,N/A,,Overcast,190,2013-01-17 00:35:00
7:55 PM,37.4,37.4,100,29.97,10.0,Calm,Calm,-,N/A,,Overcast,0,2013-01-17 00:55:00
8:15 PM,37.4,37.4,100,29.97,7.0,Calm,Calm,-,N/A,,Overcast,0,2013-01-17 01:15:00
8:35 PM,37.4,37.4,100,29.97,10.0,Calm,Calm,-,N/A,,Overcast,0,2013-01-17 01:35:00
8:55 PM,37.4,37.4,100,29.95,7.0,Calm,Calm,-,N/A,,Mostly Cloudy,0,2013-01-17 01:55:00
9:15 PM,37.4,37.4,100,29.97,7.0,West,3.5,-,N/A,,Scattered Clouds,280,2013-01-17 02:15:00
9:55 PM,39.2,39.2,100,29.98,10.0,NW,3.5,-,N/A,,Overcast,320,2013-01-17 02:55:00
10:15 PM,39.2,39.2,100,29.97,10.0,Calm,Calm,-,N/A,,Overcast,0,2013-01-17 03:15:00
10:35 PM,39.2,39.2,100,29.97,10.0,Calm,Calm,-,N/A,,Overcast,0,2013-01-17 03:35:00
10:55 PM,37.4,37.4,100,29.97,7.0,ESE,5.8,-,N/A,,Overcast,120,2013-01-17 03:55:00
11:15 PM,37.4,37.4,100,29.96,5.0,NNW,3.5,-,N/A,,Mostly Cloudy,330,2013-01-17 04:15:00
11:35 PM,39.2,39.2,100,29.95,10.0,Calm,Calm,-,N/A,,Scattered Clouds,0,2013-01-17 04:35:00
11:55 PM,39.2,39.2,100,29.97,10.0,Calm,Calm,-,N/A,,Scattered Clouds,0,2013-01-17 04:55:00